Погода в Тобольске

Погода в Тобольске : погода сейчас, прогноз погоды и архив. Всё, что Вы хотите узнать о погоде в Тобольске!

Хотите узнать прогноз погоды в Тобольске? Тогда Вам сюда: Погода в Тобольске

Поиск расширенной информации на нашем сайте:

Другие новости

Новости СМИ2

Главная страница сайта

Новости сайта

03.07.2017

Напоминаем, что на нашем специализированном сайте Метеоцентр.Азия вы можете получить высокодетализированные автоматические прогнозы погоды по пунктам России, СНГ и мира в авиационном формате (включающие направление и скорость ветра, видимость, явления погоды, количество и форму облачности, нижнюю и верхнюю границу облачности).


Погода в Тобольске - сегодня

Время (UTC), дата Ветер
(°,м/с) 
Видим.   Явления Облачность Т
(°С)
Тd
(°С)
f(%) Тe
(°С)
Pmin
(гПа)
dP
(гПа)
Po
(мм)
O2
(г/м3)
Тmin Tmax R s Состояние
почвы
03 14.10.18 230 (ЮЗ) 10 км  слаб. ливневой снег  10/10 600 м кучево-дожд. 
[Cb cap]
-0.8 -1.9 92 -2  1005.8  0.7  750  303  -1.1    0.3  равномерный
сухой снег
100% 
06 14.10.18 230 (ЮЗ) 10 км  слаб. ливневой снег  10/10 300 м кучево-дожд. 
[Cb cap]
+0.6 -1.5 86 -1  1007  1.3  751  302           
09 14.10.18 220 (ЮЗ) 10 км  слаб. ливневой снег  10/10 300 м кучево-дожд. 
[Cb cap]
+1 -0.4 90 1008.5  1.5  752  302           
12 14.10.18 220 (ЮЗ) 4000 м  слаб. ливневой снег  10/0 кучево-дожд. 
[Cb cap]
+0.3 -0.8 92 +1  1010.2  1.6  753  303           
15 14.10.18 160 (Ю) 4000 м  слаб. ливневой снег  8/5 600 м кучево-дожд., средняя, верхняя 
[Cb cap|Ac trans|Ci sp]
-0.6 -1.3 95 1011.8  1.6  754  305    +1.2     
18 14.10.18 тихо ()   4000 м  слаб. ливневой снег  10/10 600 м кучево-дожд. 
[Cb cap]
-1.3 -2 95 -1  1013.2  1.4  755  306           
21 14.10.18 080 (В) 4000 м  слаб. ливневой снег  10/10 600 м кучево-дожд. 
[Cb cap]
-0.7 -1.4 95 -2  1014.7  1.5  756  306           
00 15.10.18 130 (ЮВ) 10 км  {ливн. осадки}  10/8 600 м кучево-дожд., средняя 
[Cb cap|Ac und]
-0.1 -0.8 95 -2  1016.4  1.7  758  305           
03 15.10.18 100 (В) 20000 м    10/10 600 м 
[St]
-0.1 -0.9 94 +1  1017.9  1.7  759  306  -1.6    0.2  равномерный
сухой снег
100% 
06 15.10.18 110 (В) 20000 м    10/10 600 м 
[Sc]
+1.2 -0.8 86 +2  1019.3  1.2  760  305           
09 15.10.18 тихо ()   10 км  слаб. ливневой снег  10/10 600 м кучево-дожд. 
[Cb cap]
+2.2 -2 74 +2  1019.6  0.4  760  304           
12 15.10.18 360 (С) 20000 м  {ливн. осадки}  10/10 600 м 
[Sc]
+0.7 -1.6 85 +1  1021  1.2  761  306           
15 15.10.18 340 (С) 4000 м  слаб. ливневой снег  10/10 600 м кучево-дожд. 
[Cb cap]
+0.2 -1.4 89 +1  1022.1  1.1  762  307    +2.2  0.3     
18 15.10.18 тихо ()   10 км  {ливн. осадки}  10/0 верхняя 
[Ci sp]
-2.1 -3 94 -2  1022.4  0.3  762  310           
21 15.10.18 270 (З) 10 км    10/0 средняя 
[Ac und]
-2.9 -3.6 95 -2  1022.9  0.5  762  311           
00 16.10.18 170 (Ю) 0500 м  туман  10/10 600 м 
[Ac und]
-3.4 -4.1 95 -3  1022.8  -0.1  762  312           
03 16.10.18 140 (ЮВ) 0500 м  туман  ?/?  
-4 -4.8 94 -5  1023.6  0.8  763  313  -4.2    0.0     
06 16.10.18 230 (ЮЗ) 4000 м  дымка{туман}  10/10 300 м 
[St]
-1.6 -2.3 95 -1  1022.7  -0.8  762  309           
09 16.10.18 200 (Ю) 20000 м    8/8 600 м кучево-дожд. 
[Cb cap]
-0.5 -1.2 95 -1  1021  -1.6  761  307           
12 16.10.18 200 (Ю) 20000 м    10/3 600 м средняя, верхняя 
[Sc|Ac trans|Ci sp]
-0.5 -3.1 83 -2  1019.7  -1.3  760  307           
18 16.10.18 210 (ЮЗ) 4000 м  слаб. снег  10/0 средняя 
[Ac As]
-0.4 -3.4 80 -2  1015.8  -2.4  757  306           
21 16.10.18 190 (Ю) 4000 м  слаб. снег  10/0 средняя 
[As op]
-0.4 -2.8 84 -3  1012.5  -3.3  755  305           
00 17.10.18 200 (Ю) 4000 м  слаб. снег  10/10 300 м 
[Frnb|Ns]
-0.4 -1.7 91 -2  1009.7  -2.7  753  304           
03 17.10.18 200 (Ю) 20000 м  {снег}  10/10 300 м 
[Sc]
+0.3 -1.3 89 -1  1006.9  -2.9  751  302  -0.7    0.3  <0.5  равномерный
сухой снег
100% 
06 17.10.18 180 (Ю) 20000 м  {ливн. осадки}  10/10 600 м кучево-дожд. 
[Cb cap]
+0.7 -0.6 91 -2  1003.3  -3.5  748  301           
Время (UTC), дата Ветер
(°,м/с) 
Видим.   Явления Облачность Т
(°С)
Тd
(°С)
f(%) Тe
(°С)
Pmin
(гПа)
dP
(гПа)
Po
(мм)
O2
(г/м3)
Тmin Tmax R s Состояние
почвы

Для получения пояснительной информации подведите курсор к названию столбца.

ПОГОДА в Тобольске - архив

Всё, что Вы хотите узнать о погоде в Тобольске - удобно и подробно!

Выберите нужную дату (начиная с 1 января 2015* года) и нажмите кнопку "Найти".
Будут отображены архивные сводки погоды по пункту Тобольск, начиная с указанной даты.


Отображать данные в формате CSV (для использования в таблицах Excel)


Внимание! Наш архив погоды предназначен исключительно для личного некоммерческого использования в познавательных целях. Если Вам необходимы официальные справки о состоянии погоды (для производственных, юридических, коммерческих и т.п. целей), обращайтесь в органы Росгидромета.

*Примечание: данная дата относится к архиву по метеостанциям СССР (Россия, СНГ, Балтия).
Архив по метеостанциям Зарубежной Европы и Азии (кроме Китая) хранится 10 дней, по другим регионам земного шара (Китай, Африка, Америка, Австралия, Океания) - 1 день.

Тобольск - район местоположения метеостанции


Название, широта, долгота, высота метеостанции:
Тобольск 58.2°ш. 68.2°д. 50 м над ур. моря [Российская Федерация]

Дополнительная информация

В oтличие oт бoльшинства пoгoдных сайтoв мы публикуем пoдрoбную метеoинфoрмацию в детальнoм прoфессиoнальнoм фoрмате.

Характеристики температуры и влажнoсти вoздуха измеряются на высoте 2 м в тени вдали oт зданий и деревьев.
Скoрoсть ветра измеряется на высoте 10 м (на урoвне рoста челoвека скoрoсть ветра ниже в 1.5-2 раза). Если метеoстанция нахoдится в гoрoде или в лесу, тo скoрoсть ветра занижена на 2-4 м/с пo сравнению с oткрытым местoм. Скoрoсть ветра над акватoриями крупных рек и oзёр, а также на вершинах хoлмoв на 2-5 м/с выше, чем в oбычных услoвиях.
Атмoсфернoе давление в разных тoчках местнoсти мoжет значительнo oтличаться oт давления на метеoстанции, в зависимoсти oт услoвий рельефа (при пoдъёме на 10 м давление пoнижается примернo на 1 мм рт.ст.).